GW2898 Weather Reports


Display with metric or nautical units.
time (UTC)temp
F
wind
direction
speed
MPH
gust
MPH
rain 1hr
in
rain 24hr
in
rain mn
in
humidity
%
barometer
mb
20260507023839 78 37 0.0 1.0 0.00 0.00 0.00 25 1015.2
20260507023337 78 15 0.0 2.0 0.00 0.00 0.00 24 1015.4
20260507022834 79 343 1.0 3.0 0.00 0.00 0.00 23 1015.1
20260507022330 79 355 1.0 2.0 0.00 0.00 0.00 24 1015.3
20260507021826 79 331 3.0 6.0 0.00 0.00 0.00 23 1015.2
20260507021322 78 358 0.0 2.0 0.00 0.00 0.00 24 1015.2
20260507020820 79 195 2.0 3.0 0.00 0.00 0.00 24 1014.9
20260507020316 79 185 2.0 3.0 0.00 0.00 0.00 22 1015.0
20260507015813 79 89 0.0 1.0 0.00 0.00 0.00 23 1015.0
20260507015311 80 160 0.0 1.0 0.00 0.00 0.00 23 1014.9
20260507014807 80 37 0.0 2.0 0.00 0.00 0.00 23 1014.8
20260507014304 80 225 4.0 6.0 0.00 0.00 0.00 21 1015.0
20260507013800 81 275 2.0 7.0 0.00 0.00 0.00 21 1014.9
20260507013258 81 249 3.0 4.0 0.00 0.00 0.00 21 1014.8
20260507012755 81 235 2.0 4.0 0.00 0.00 0.00 22 1015.0
20260507012250 81 181 1.0 4.0 0.00 0.00 0.00 22 1014.9
20260507011748 81 217 0.0 3.0 0.00 0.00 0.00 21 1015.1
20260507011244 82 168 0.0 4.0 0.00 0.00 0.00 20 1015.1
20260507010744 82 284 0.0 3.0 0.00 0.00 0.00 20 1014.8
20260507010240 83 189 2.0 5.0 0.00 0.00 0.00 21 1015.1
20260507005738 84 200 1.0 6.0 0.00 0.00 0.00 21 1014.7
20260507005234 84 203 1.0 3.0 0.00 0.00 0.00 19 1014.6
20260507004731 84 83 3.0 4.0 0.00 0.00 0.00 19 1014.8
20260507004229 85 237 2.0 3.0 0.00 0.00 0.00 19 1014.9
20260507003724 83 238 1.0 4.0 0.00 0.00 0.00 20 1014.8
20260507003220 84 326 4.0 8.0 0.00 0.00 0.00 20 1015.2
20260507002716 85 246 1.0 3.0 0.00 0.00 0.00 21 1014.8
20260507002212 84 307 1.0 4.0 0.00 0.00 0.00 19 1014.9
20260507001709 84 336 2.0 5.0 0.00 0.00 0.00 20 1014.7
20260507001206 84 352 3.0 7.0 0.00 0.00 0.00 20 1014.7
20260507000702 84 338 4.0 5.0 0.00 0.00 0.00 20 1015.0
20260507000158 84 2 2.0 8.0 0.00 0.00 0.00 20 1014.9
20260506235656 85 319 5.0 6.0 0.00 0.00 0.00 20 1014.9
20260506235151 83 339 2.0 7.0 0.00 0.00 0.00 21 1015.0
20260506234648 84 121 3.0 5.0 0.00 0.00 0.00 22 1014.8
20260506234145 85 212 0.0 4.0 0.00 0.00 0.00 20 1014.9
20260506233642 84 246 0.0 3.0 0.00 0.00 0.00 20 1014.9
20260506233139 83 184 0.0 5.0 0.00 0.00 0.00 24 1015.1
20260506232635 82 74 4.0 8.0 0.00 0.00 0.00 20 1014.9
20260506232131 83 225 3.0 7.0 0.00 0.00 0.00 23 1015.3
20260506231628 84 0 3.0 6.0 0.00 0.00 0.00 20 1015.3
20260506231126 84 214 0.0 6.0 0.00 0.00 0.00 20 1015.2
20260506230623 83 346 2.0 5.0 0.00 0.00 0.00 21 1015.3
20260506230120 84 327 6.0 8.0 0.00 0.00 0.00 21 1015.4
20260506225616 84 304 7.0 8.0 0.00 0.00 0.00 20 1015.4
20260506225113 84 354 3.0 6.0 0.00 0.00 0.00 22 1015.4
20260506224610 83 248 2.0 12.0 0.00 0.00 0.00 21 1015.5
20260506224107 84 332 2.0 7.0 0.00 0.00 0.00 20 1015.6
20260506223603 85 206 1.0 5.0 0.00 0.00 0.00 22 1015.6
20260506223059 84 284 1.0 5.0 0.00 0.00 0.00 21 1015.5
20260506222556 83 278 1.0 5.0 0.00 0.00 0.00 24 1015.8
20260506222052 82 252 6.0 9.0 0.00 0.00 0.00 21 1015.8
20260506221550 82 263 3.0 6.0 0.00 0.00 0.00 21 1015.7
20260506221048 82 0 2.0 3.0 0.00 0.00 0.00 22 1015.8
20260506220543 81 22 3.0 8.0 0.00 0.00 0.00 21 1016.1
20260506220039 83 3 3.0 7.0 0.00 0.00 0.00 21 1016.0
20260506215536 83 302 2.0 3.0 0.00 0.00 0.00 22 1016.2
20260506215032 82 330 6.0 9.0 0.00 0.00 0.00 21 1016.2
20260506214529 83 315 5.0 14.0 0.00 0.00 0.00 22 1016.2
20260506214026 81 291 3.0 7.0 0.00 0.00 0.00 21 1016.6
20260506213524 82 330 2.0 5.0 0.00 0.00 0.00 21 1016.7
20260506213021 82 88 3.0 8.0 0.00 0.00 0.00 22 1016.4
20260506212518 82 76 5.0 9.0 0.00 0.00 0.00 21 1016.6
20260506212013 82 56 3.0 5.0 0.00 0.00 0.00 23 1016.8
20260506211509 81 332 3.0 6.0 0.00 0.00 0.00 22 1016.9
20260506211006 82 320 4.0 8.0 0.00 0.00 0.00 23 1016.8
20260506210502 82 271 5.0 9.0 0.00 0.00 0.00 22 1016.9
20260506205959 81 355 3.0 8.0 0.00 0.00 0.00 23 1017.1
20260506205455 81 0 3.0 9.0 0.00 0.00 0.00 23 1017.1
20260506204951 82 324 5.0 7.0 0.00 0.00 0.00 22 1017.0
20260506204449 82 320 9.0 11.0 0.00 0.00 0.00 22 1017.2
20260506203947 81 188 2.0 5.0 0.00 0.00 0.00 22 1017.1
20260506203443 81 301 4.0 8.0 0.00 0.00 0.00 22 1017.1
20260506202940 81 259 1.0 4.0 0.00 0.00 0.00 24 1017.1
20260506202438 79 340 5.0 8.0 0.00 0.00 0.00 24 1017.2
20260506201934 80 313 4.0 7.0 0.00 0.00 0.00 22 1017.5
20260506201432 81 337 5.0 7.0 0.00 0.00 0.00 26 1017.4
20260506200928 80 313 6.0 8.0 0.00 0.00 0.00 23 1017.5
20260506200425 80 255 2.0 3.0 0.00 0.00 0.00 23 1017.5
20260506195921 80 231 1.0 3.0 0.00 0.00 0.00 27 1017.6
20260506195418 79 70 0.0 3.0 0.00 0.00 0.00 24 1017.5
20260506194915 79 130 2.0 6.0 0.00 0.00 0.00 26 1017.7
20260506194412 78 228 1.0 6.0 0.00 0.00 0.00 23 1017.9
20260506193909 79 5 5.0 9.0 0.00 0.00 0.00 24 1017.7
20260506193406 79 218 2.0 4.0 0.00 0.00 0.00 26 1017.9
20260506192902 78 113 4.0 5.0 0.00 0.00 0.00 26 1017.8
20260506192359 78 333 5.0 11.0 0.00 0.00 0.00 25 1018.0
20260506191856 79 340 2.0 7.0 0.00 0.00 0.00 26 1017.8
20260506191352 78 40 1.0 4.0 0.00 0.00 0.00 24 1017.9
20260506190849 78 86 3.0 6.0 0.00 0.00 0.00 24 1018.1
20260506190345 79 11 5.0 7.0 0.00 0.00 0.00 24 1018.2
20260506185843 77 62 1.0 4.0 0.00 0.00 0.00 28 1018.3
20260506185340 77 331 2.0 8.0 0.00 0.00 0.00 25 1018.3
20260506184836 77 346 4.0 8.0 0.00 0.00 0.00 26 1018.3
20260506184334 77 343 4.0 8.0 0.00 0.00 0.00 26 1018.2
20260506183831 77 317 0.0 7.0 0.00 0.00 0.00 25 1018.3
20260506183326 78 204 0.0 7.0 0.00 0.00 0.00 26 1018.7
20260506182824 77 71 0.0 7.0 0.00 0.00 0.00 27 1018.9
20260506182321 77 253 3.0 7.0 0.00 0.00 0.00 28 1018.6
20260506181819 77 337 0.0 5.0 0.00 0.00 0.00 27 1018.5
20260506181316 77 142 3.0 7.0 0.00 0.00 0.00 27 1018.9
20260506180813 76 177 1.0 4.0 0.00 0.00 0.00 32 1018.9
20260506180309 76 75 3.0 4.0 0.00 0.00 0.00 28 1018.7
20260506175806 76 204 0.0 7.0 0.00 0.00 0.00 31 1018.9
20260506175306 75 218 3.0 6.0 0.00 0.00 0.00 31 1019.0
20260506174800 75 167 3.0 4.0 0.00 0.00 0.00 33 1019.1
20260506174257 75 152 2.0 3.0 0.00 0.00 0.00 31 1019.0
20260506173749 75 233 4.0 7.0 0.00 0.00 0.00 32 1019.1
20260506173246 74 20 2.0 7.0 0.00 0.00 0.00 31 1019.1
20260506172743 74 230 5.0 9.0 0.00 0.00 0.00 32 1018.9
20260506172239 75 261 4.0 6.0 0.00 0.00 0.00 32 1019.0
20260506171737 75 55 1.0 4.0 0.00 0.00 0.00 31 1019.0
20260506171234 75 238 2.0 4.0 0.00 0.00 0.00 31 1019.0
20260506170732 73 324 1.0 5.0 0.00 0.00 0.00 32 1018.7
20260506170228 74 258 4.0 6.0 0.00 0.00 0.00 31 1018.7
20260506165727 74 353 3.0 3.0 0.00 0.00 0.00 31 1018.6
20260506165223 74 109 2.0 5.0 0.00 0.00 0.00 33 1018.7
20260506164721 73 357 3.0 5.0 0.00 0.00 0.00 34 1018.9
20260506164217 73 313 2.0 3.0 0.00 0.00 0.00 33 1018.9
20260506163713 75 271 3.0 5.0 0.00 0.00 0.00 33 1018.9
20260506163208 75 335 0.0 2.0 0.00 0.00 0.00 31 1019.0
20260506162705 73 315 0.0 2.0 0.00 0.00 0.00 32 1018.9
20260506162202 71 303 3.0 5.0 0.00 0.00 0.00 34 1018.7
20260506161659 71 307 0.0 2.0 0.00 0.00 0.00 36 1018.5
20260506161155 72 161 1.0 3.0 0.00 0.00 0.00 36 1019.0
20260506160653 72 232 3.0 4.0 0.00 0.00 0.00 33 1018.7
20260506160150 72 19 2.0 4.0 0.00 0.00 0.00 33 1018.7
20260506155649 73 10 1.0 2.0 0.00 0.00 0.00 32 1018.7
20260506155145 71 87 2.0 5.0 0.00 0.00 0.00 35 1018.7
20260506153248 71 84 2.0 3.0 0.00 0.00 0.00 36 1019.0
20260506152744 72 193 0.0 3.0 0.00 0.00 0.00 35 1018.7
20260506152242 72 15 0.0 3.0 0.00 0.00 0.00 35 1018.9
20260506151741 72 67 2.0 3.0 0.00 0.00 0.00 35 1018.6
20260506151237 70 163 1.0 3.0 0.00 0.00 0.00 36 1018.9
20260506150733 70 59 0.0 4.0 0.00 0.00 0.00 37 1018.7
20260506150231 69 145 0.0 3.0 0.00 0.00 0.00 37 1018.7
20260506145728 69 64 1.0 3.0 0.00 0.00 0.00 37 1018.5
20260506145224 66 230 0.0 3.0 0.00 0.00 0.00 39 1018.5
20260506144721 67 269 0.0 1.0 0.00 0.00 0.00 39 1018.6
20260506144219 67 124 2.0 5.0 0.00 0.00 0.00 39 1018.5
20260506143716 68 104 1.0 3.0 0.00 0.00 0.00 37 1018.9
20260506143214 65 126 1.0 3.0 0.00 0.00 0.00 40 1018.7
20260506142712 66 187 2.0 3.0 0.00 0.00 0.00 39 1018.4
20260506142209 66 204 0.0 3.0 0.00 0.00 0.00 41 1018.4
20260506141707 64 110 0.0 2.0 0.00 0.00 0.00 41 1018.3
20260506141205 63 158 3.0 4.0 0.00 0.00 0.00 42 1018.4
20260506140703 63 114 1.0 3.0 0.00 0.00 0.00 45 1018.2
20260506140200 62 175 2.0 4.0 0.00 0.00 0.00 45 1018.1
20260506135657 63 167 2.0 7.0 0.00 0.00 0.00 44 1018.1
20260506135153 63 152 2.0 4.0 0.00 0.00 0.00 44 1017.9
20260506134650 62 122 0.0 3.0 0.00 0.00 0.00 46 1018.0
20260506134146 63 169 0.0 3.0 0.00 0.00 0.00 47 1017.8
20260506133643 62 148 0.0 3.0 0.00 0.00 0.00 49 1018.0
20260506133139 61 127 1.0 2.0 0.00 0.00 0.00 50 1018.0
20260506132637 60 129 2.0 4.0 0.00 0.00 0.00 52 1017.9
20260506132133 59 12 2.0 2.0 0.00 0.00 0.00 57 1017.8
20260506131631 58 92 2.0 3.0 0.00 0.00 0.00 58 1017.7
20260506131127 57 173 0.0 4.0 0.00 0.00 0.00 59 1017.7
20260506130624 57 48 0.0 3.0 0.00 0.00 0.00 59 1017.6
20260506130122 55 92 1.0 2.0 0.00 0.00 0.00 62 1017.9
20260506125620 54 83 2.0 3.0 0.00 0.00 0.00 66 1017.6
20260506125117 53 147 0.0 2.0 0.00 0.00 0.00 67 1017.4
20260506124615 53 112 0.0 2.0 0.00 0.00 0.00 67 1017.4
20260506124113 53 96 2.0 3.0 0.00 0.00 0.00 68 1017.6
20260506123610 53 107 2.0 3.0 0.00 0.00 0.00 67 1017.1
20260506123108 53 67 0.0 2.0 0.00 0.00 0.00 66 1017.2
20260506122604 53 67 2.0 3.0 0.00 0.00 0.00 65 1017.3
20260506122103 53 62 2.0 4.0 0.00 0.00 0.00 65 1017.0
20260506121600 53 52 1.0 3.0 0.00 0.00 0.00 66 1017.2
20260506121056 53 37 1.0 2.0 0.00 0.00 0.00 66 1017.1
20260506120554 53 60 0.0 2.0 0.00 0.00 0.00 64 1017.1
20260506120051 53 97 1.0 3.0 0.00 0.00 0.00 64 1017.1
20260506115549 53 106 1.0 3.0 0.00 0.00 0.00 64 1017.1
20260506115047 53 44 2.0 3.0 0.00 0.00 0.00 65 1017.0
20260506114544 53 126 1.0 3.0 0.00 0.00 0.00 63 1017.1
20260506114043 54 100 1.0 3.0 0.00 0.00 0.00 62 1017.4
20260506113540 54 101 2.0 4.0 0.00 0.00 0.00 64 1016.9
20260506113037 54 119 0.0 2.0 0.00 0.00 0.00 63 1017.0
20260506112534 54 81 1.0 3.0 0.00 0.00 0.00 63 1017.2
20260506112031 54 81 0.0 2.0 0.00 0.00 0.00 63 1017.0
20260506111529 54 104 2.0 3.0 0.00 0.00 0.00 63 1017.0
20260506111026 54 128 2.0 2.0 0.00 0.00 0.00 61 1016.8
20260506110524 54 55 1.0 2.0 0.00 0.00 0.00 60 1017.0
20260506110021 55 109 1.0 3.0 0.00 0.00 0.00 58 1017.1
20260506105517 55 74 1.0 2.0 0.00 0.00 0.00 58 1017.1
20260506105014 56 103 1.0 2.0 0.00 0.00 0.00 57 1017.0
20260506104512 56 134 0.0 1.0 0.00 0.00 0.00 56 1016.8
20260506104010 56 103 2.0 2.0 0.00 0.00 0.00 55 1017.1
20260506103507 56 94 2.0 3.0 0.00 0.00 0.00 55 1016.9
20260506103003 57 80 2.0 3.0 0.00 0.00 0.00 53 1016.9
20260506102502 57 26 2.0 2.0 0.00 0.00 0.00 54 1016.9
20260506101959 58 114 2.0 4.0 0.00 0.00 0.00 52 1016.9
20260506101455 57 56 2.0 4.0 0.00 0.00 0.00 54 1016.7
20260506100952 57 30 0.0 2.0 0.00 0.00 0.00 54 1016.6
20260506100451 57 13 0.0 1.0 0.00 0.00 0.00 54 1016.6
20260506095948 57 119 2.0 3.0 0.00 0.00 0.00 52 1016.3
20260506095447 58 96 2.0 4.0 0.00 0.00 0.00 52 1016.4
20260506094942 57 215 2.0 2.0 0.00 0.00 0.00 53 1016.4
20260506094441 57 106 1.0 2.0 0.00 0.00 0.00 53 1016.6
20260506093938 58 107 3.0 4.0 0.00 0.00 0.00 53 1016.5
20260506093436 58 152 1.0 3.0 0.00 0.00 0.00 52 1016.3
20260506092934 58 109 3.0 4.0 0.00 0.00 0.00 52 1016.4
20260506092431 58 93 3.0 3.0 0.00 0.00 0.00 52 1016.4
20260506091928 58 48 0.0 2.0 0.00 0.00 0.00 51 1016.4
20260506091426 58 330 3.0 5.0 0.00 0.00 0.00 51 1016.3
20260506090923 57 29 2.0 3.0 0.00 0.00 0.00 52 1016.4
20260506090420 57 145 2.0 3.0 0.00 0.00 0.00 52 1016.2
20260506085917 57 114 0.0 2.0 0.00 0.00 0.00 53 1016.3
20260506085414 57 99 0.0 2.0 0.00 0.00 0.00 51 1016.3
20260506084910 58 168 0.0 2.0 0.00 0.00 0.00 50 1016.3
20260506084407 58 91 2.0 3.0 0.00 0.00 0.00 49 1016.2
20260506083903 58 55 1.0 3.0 0.00 0.00 0.00 49 1016.2
20260506083401 58 127 1.0 2.0 0.00 0.00 0.00 49 1016.3
20260506082858 59 73 0.0 2.0 0.00 0.00 0.00 46 1015.8
20260506082355 60 51 0.0 2.0 0.00 0.00 0.00 46 1016.2
20260506081850 60 63 1.0 2.0 0.00 0.00 0.00 46 1016.1
20260506081349 60 115 2.0 3.0 0.00 0.00 0.00 45 1016.3
20260506080846 61 139 0.0 2.0 0.00 0.00 0.00 44 1016.2
20260506080343 61 100 1.0 3.0 0.00 0.00 0.00 42 1016.3
20260506073327 64 179 0.0 3.0 0.00 0.00 0.00 40 1016.3
20260506072824 64 139 2.0 2.0 0.00 0.00 0.00 40 1016.5
20260506072321 64 140 3.0 3.0 0.00 0.00 0.00 40 1016.2
20260506071819 63 136 1.0 3.0 0.00 0.00 0.00 42 1016.2
20260506071317 65 185 0.0 3.0 0.00 0.00 0.00 39 1016.0
20260506070813 64 14 0.0 3.0 0.00 0.00 0.00 40 1016.1
20260506070310 61 165 0.0 3.0 0.00 0.00 0.00 43 1016.2
20260506062248 60 34 0.0 2.0 0.00 0.00 0.00 46 1015.8
20260506061743 60 72 2.0 2.0 0.00 0.00 0.00 46 1015.5
20260506061241 60 180 0.0 3.0 0.00 0.00 0.00 46 1015.7
20260506060739 61 89 1.0 3.0 0.00 0.00 0.00 44 1015.6
20260506060236 61 109 1.0 3.0 0.00 0.00 0.00 43 1015.7
20260506051203 62 82 0.0 2.0 0.00 0.00 0.00 41 1015.5
20260506050701 62 31 1.0 2.0 0.00 0.00 0.00 41 1015.3
20260506050158 63 63 0.0 2.0 0.00 0.00 0.00 40 1015.2
20260506044643 65 157 0.0 1.0 0.00 0.00 0.00 36 1015.1
20260506044140 65 119 0.0 2.0 0.00 0.00 0.00 36 1015.2
20260506043637 66 80 1.0 2.0 0.00 0.00 0.00 35 1014.9
20260506043135 66 99 1.0 2.0 0.00 0.00 0.00 34 1014.8
20260506042634 67 60 2.0 2.0 0.00 0.00 0.00 33 1015.0
20260506042131 67 140 0.0 1.0 0.00 0.00 0.00 33 1014.9
20260506041630 67 129 0.0 2.0 0.00 0.00 0.00 33 1015.0
20260506041126 68 142 0.0 2.0 0.00 0.00 0.00 32 1014.9
20260506040624 69 153 1.0 3.0 0.00 0.00 0.00 31 1014.8
20260506040120 70 188 2.0 4.0 0.00 0.00 0.00 30 1014.6
20260506035617 71 133 2.0 3.0 0.00 0.00 0.00 30 1014.7
20260506035114 71 238 2.0 7.0 0.00 0.00 0.00 29 1014.7
20260506034611 71 232 7.0 7.0 0.00 0.00 0.00 29 1014.6
20260506034108 71 249 2.0 4.0 0.00 0.00 0.00 29 1014.4
20260506033605 71 236 4.0 7.0 0.00 0.00 0.00 28 1014.5
20260506033102 71 277 2.0 8.0 0.00 0.00 0.00 28 1014.5
20260506032559 71 265 2.0 5.0 0.00 0.00 0.00 28 1014.4
20260506032056 71 257 2.0 7.0 0.00 0.00 0.00 27 1014.2
20260506031553 71 246 2.0 7.0 0.00 0.00 0.00 28 1014.2
20260506031050 71 309 0.0 7.0 0.00 0.00 0.00 28 1014.1
20260506030548 71 252 0.0 9.0 0.00 0.00 0.00 28 1014.1
20260506030045 72 263 6.0 8.0 0.00 0.00 0.00 27 1013.9
20260506025542 72 262 5.0 10.0 0.00 0.00 0.00 26 1013.8
20260506025038 72 241 2.0 5.0 0.00 0.00 0.00 27 1013.8
20260506024536 72 252 7.0 10.0 0.00 0.00 0.00 26 1013.8